This demonstration page uses our WeatherBlox Daily Observations layout. Learn more.

Hourly Observations for August 13, 2015

Temp ( °F °C ) Dew Point ( °F °C ) Humidity (%) Winds ( mph kmh ) Pressure ( in mb ) Visibility ( mi km ) Precip ( " mm )
12:15 am 00:15 Clear 68 20 63 17 83 83 SSE 5 7 30.06 1018 10 16.09344 0 0
12:35 am 00:35 Clear 68 20 63 17 83 83 S 5 7 30.06 1018 10 16.09344 0 0
12:55 am 00:55 Clear 66 19 63 17 88 88 S 5 7 30.06 1018 10 16.09344 0 0
1:15 am 01:15 Clear 66 19 63 17 88 88 S 5 7 30.06 1018 10 16.09344 0 0
1:35 am 01:35 Clear 68 20 63 17 83 83 S 5 7 30.06 1018 10 16.09344 0 0
1:55 am 01:55 Clear 66 19 63 17 88 88 S 5 7 30.06 1018 10 16.09344 0 0
2:15 am 02:15 Clear 66 19 63 17 88 88 S 3 6 30.06 1018 10 16.09344 0 0
2:35 am 02:35 Clear 64 18 63 17 94 94 SSE 5 7 30.06 1018 10 16.09344 0 0
2:55 am 02:55 Clear 66 19 61 16 83 83 S 3 6 30.06 1018 10 16.09344 0 0
3:15 am 03:15 Clear 66 19 63 17 88 88 SSW 6 9 30.06 1018 10 16.09344 0 0
3:35 am 03:35 Clear 66 19 63 17 88 88 SSW 6 9 30.06 1018 10 16.09344 0 0
3:55 am 03:55 Clear 66 19 63 17 88 88 S 5 7 30.06 1018 10 16.09344 0 0
4:15 am 04:15 Clear 66 19 61 16 83 83 SSW 5 7 30.06 1018 10 16.09344 0 0
4:35 am 04:35 Clear 64 18 61 16 88 88 SSW 3 6 30.06 1018 10 16.09344 0 0
4:55 am 04:55 Clear 64 18 61 16 88 88 SSW 6 9 30.06 1018 10 16.09344 0 0
5:15 am 05:15 Clear 64 18 61 16 88 88 SSW 6 9 30.06 1018 10 16.09344 0 0
5:35 am 05:35 Clear 64 18 61 16 88 88 SSW 6 9 30.06 1018 10 16.09344 0 0
5:55 am 05:55 Clear 64 18 61 16 88 88 S 5 7 30.06 1018 10 16.09344 0 0
6:15 am 06:15 Clear 64 18 61 16 88 88 S 6 9 30.06 1018 10 16.09344 0 0
6:35 am 06:35 Clear 64 18 61 16 88 88 S 6 9 30.06 1018 10 16.09344 0 0
6:55 am 06:55 Sunny 64 18 61 16 88 88 S 6 9 30.06 1018 10 16.09344 0 0
7:15 am 07:15 Sunny 64 18 61 16 88 88 S 7 11 30.06 1018 10 16.09344 0 0
7:35 am 07:35 Sunny 66 19 61 16 83 83 SSW 8 13 30.06 1018 10 16.09344 0 0
7:55 am 07:55 Sunny 66 19 61 16 83 83 S 8 13 30.06 1018 10 16.09344 0 0
8:15 am 08:15 Sunny 68 20 63 17 83 83 S 9 15 30.06 1018 10 16.09344 0 0
8:35 am 08:35 Sunny 70 21 63 17 78 78 S 8 13 30.03 1017 10 16.09344 0 0
8:55 am 08:55 Sunny 70 21 63 17 78 78 S 7 11 30.03 1017 10 16.09344 0 0
9:15 am 09:15 Sunny 72 22 63 17 73 73 S 10 17 30.03 1017 10 16.09344 0 0
9:35 am 09:35 Sunny 73 23 63 17 69 69 S 14 22 30.03 1017 10 16.09344 0 0
9:55 am 09:55 Sunny 75 24 63 17 65 65 S 13 20 30.03 1017 10 16.09344 0 0
10:15 am 10:15 Partly Cloudy 75 24 63 17 65 65 S 12 19 30.03 1017 10 16.09344 0 0
10:35 am 10:35 Mostly Cloudy 75 24 63 17 65 65 SSW 15 24 30.03 1017 10 16.09344 0 0
10:55 am 10:55 Partly Cloudy 75 24 63 17 65 65 S 14 22 30.03 1017 10 16.09344 0 0
11:15 am 11:15 Partly Cloudy 79 26 63 17 58 58 SSW 17 28 30 1016 10 16.09344 0 0
11:35 am 11:35 Sunny 79 26 63 17 58 58 S 16 26 30 1016 10 16.09344 0 0
11:55 am 11:55 Sunny 79 26 63 17 58 58 S 15 24 30 1016 10 16.09344 0 0
12:15 pm 12:15 Sunny 81 27 63 17 54 54 S 13 20 30 1016 10 16.09344 0 0
12:35 pm 12:35 Sunny 81 27 63 17 54 54 S 14 22 30 1016 10 16.09344 0 0
12:55 pm 12:55 Sunny 82 28 63 17 51 51 S 15 24 30 1016 10 16.09344 0 0
1:15 pm 13:15 Sunny 82 28 63 17 51 51 S 16 26 29.94 1014 10 16.09344 0 0
1:35 pm 13:35 Sunny 82 28 63 17 51 51 S 15 24 29.94 1014 10 16.09344 0 0
1:55 pm 13:55 Sunny 82 28 63 17 51 51 S 13 20 29.94 1014 10 16.09344 0 0
2:15 pm 14:15 Sunny 82 28 63 17 51 51 S 14 22 29.94 1014 10 16.09344 0 0
2:35 pm 14:35 Sunny 84 29 63 17 48 48 S 10 17 29.94 1014 10 16.09344 0 0
2:55 pm 14:55 Sunny 84 29 63 17 48 48 S 12 19 29.94 1014 10 16.09344 0 0
3:15 pm 15:15 Sunny 84 29 63 17 48 48 S 14 22 29.94 1014 10 16.09344 0 0
3:35 pm 15:35 Sunny 84 29 63 17 48 48 SSE 10 17 29.91 1013 10 16.09344 0 0
3:55 pm 15:55 Sunny 84 29 63 17 48 48 S 14 22 29.91 1013 10 16.09344 0 0
4:15 pm 16:15 Sunny 86 30 63 17 46 46 S 9 15 29.91 1013 10 16.09344 0 0
4:35 pm 16:35 Sunny 86 30 63 17 46 46 S 14 22 29.91 1013 10 16.09344 0 0
4:55 pm 16:55 Sunny 86 30 64 18 49 49 S 12 19 29.91 1013 10 16.09344 0 0
5:15 pm 17:15 Sunny 86 30 63 17 46 46 SSE 15 24 29.91 1013 10 16.09344 0 0
5:35 pm 17:35 Sunny 86 30 64 18 49 49 S 14 22 29.91 1013 10 16.09344 0 0
5:55 pm 17:55 Sunny 86 30 63 17 46 46 SSE 15 24 29.91 1013 10 16.09344 0 0
6:15 pm 18:15 Sunny 86 30 64 18 49 49 SSE 10 17 29.88 1012 10 16.09344 0 0
6:35 pm 18:35 Sunny 84 29 64 18 51 51 SSE 14 22 29.88 1012 10 16.09344 0 0
6:55 pm 18:55 Sunny 84 29 64 18 51 51 SE 12 19 29.88 1012 10 16.09344 0 0
7:15 pm 19:15 Partly Cloudy 82 28 64 18 55 55 SE 12 19 29.91 1013 10 16.09344 0 0
7:35 pm 19:35 Partly Cloudy 81 27 63 17 54 54 SE 9 15 29.94 1014 10 16.09344 0 0
7:55 pm 19:55 Sunny 81 27 64 18 58 58 SE 8 13 29.91 1013 10 16.09344 0 0
8:15 pm 20:15 Sunny 79 26 63 17 58 58 SE 9 15 29.91 1013 10 16.09344 0 0
8:35 pm 20:35 Sunny 77 25 63 17 61 61 SE 9 15 29.94 1014 10 16.09344 0 0
8:55 pm 20:55 Clear 75 24 63 17 65 65 ESE 8 13 29.97 1015 10 16.09344 0 0
9:15 pm 21:15 Clear 75 24 63 17 65 65 ESE 8 13 29.97 1015 10 16.09344 0 0
9:35 pm 21:35 Clear 75 24 63 17 65 65 ESE 9 15 29.97 1015 10 16.09344 0 0
9:55 pm 21:55 Clear with Nearby Thunderstorms 73 23 63 17 69 69 E 8 13 30.03 1017 10 16.09344 0 0
10:15 pm 22:15 Partly Cloudy with Light Rain 73 23 64 18 74 74 E 9 15 30.03 1017 10 16.09344 0 0
10:35 pm 22:35 Mostly Cloudy with Light Rain 72 22 66 19 83 83 Calm 30.03 1017 10 16.09344 0.01 0.254
10:55 pm 22:55 Mostly Cloudy with Light Rain 72 22 66 19 83 83 SSE 10 17 30.03 1017 10 16.09344 0.01 0.254
11:15 pm 23:15 Partly Cloudy with Light Rain 72 22 64 18 78 78 S 24 39 29.91 1013 10 16.09344 0.02 0.508
11:35 pm 23:35 Clear with Nearby Thunderstorms 72 22 63 17 73 73 S 20 31 29.94 1014 10 16.09344 0.02 0.508
11:55 pm 23:55 Clear 72 22 63 17 73 73 S 14 22 29.94 1014 10 16.09344 0.02 0.508

Powered by AerisWeather